Wind_Speed
12 12 12 12 14 13 11 10 9 9 9 8 8 7 7 6 6 6 6 6 6 6 7 7 8 8 8 8 8 8 9 9 8 7 7 6 6 5 5 5 5 5 4 4 3 3 3 3 2
11 12 12 13 13 11 10 10 10 9 10 9 8 7 7 6 6 5 6 6 7 7 7 7 8 8 8 8 8 8 9 9 8 7 6 6 6 5 5 5 4 4 3 2 2 3 3 3 3
12 12 12 13 12 11 10 10 11 11 10 10 9 8 7 6 6 6 6 7 7 8 8 8 8 8 8 8 8 9 9 8 7 7 7 6 6 6 6 5 4 3 3 2 2 2 3 2 2
12 12 12 12 11 11 11 11 10 10 10 10 10 9 8 8 7 7 7 7 8 8 9 9 9 9 8 8 8 8 8 8 7 7 7 7 7 7 6 5 4 4 3 2 1 2 3 3 2
11 12 12 11 10 10 10 10 10 10 10 10 10 9 9 8 8 7 8 8 8 9 9 9 9 8 8 8 8 8 8 8 7 7 7 7 7 6 6 5 4 4 3 2 2 2 3 2 2
12 12 12 10 10 10 10 10 10 11 11 11 10 10 8 9 8 8 8 8 9 9 8 8 8 8 8 8 8 7 8 8 7 7 7 7 7 7 6 5 5 5 4 3 4 3 3 3 3
12 12 11 11 11 11 11 10 11 11 11 11 11 10 9 8 8 8 8 8 8 8 8 8 8 8 8 8 8 7 7 7 7 6 7 7 7 7 6 6 6 5 5 4 4 3 3 3 3
12 13 11 11 11 11 12 12 11 11 11 12 11 10 9 8 8 9 9 8 8 8 7 8 8 8 8 8 8 8 7 7 6 6 6 7 7 6 6 6 5 5 5 4 4 3 4 4 3
12 13 11 11 12 12 13 13 12 12 12 12 11 11 10 9 9 9 9 8 8 7 7 7 8 8 8 8 8 7 7 7 6 6 6 6 6 6 6 5 5 6 5 4 4 4 4 4 4
12 12 11 11 12 12 13 13 12 12 12 11 12 11 10 10 9 9 8 8 7 7 7 6 7 8 7 8 8 7 7 6 6 6 6 6 6 6 5 5 5 5 5 4 4 4 4 4 4
11 11 11 11 11 12 13 13 12 12 12 12 11 11 10 10 9 8 9 8 8 7 7 6 7 7 7 7 7 7 6 7 7 6 6 6 6 5 5 5 5 5 4 4 4 5 5 5 5
9 9 9 9 10 11 12 12 12 12 12 12 12 11 10 10 10 9 8 8 8 8 7 6 6 7 7 7 7 7 7 6 6 6 6 6 6 5 5 5 5 5 4 4 4 4 5 5 6
8 8 9 9 10 11 11 12 12 12 12 12 12 12 11 9 9 9 8 8 8 7 6 6 6 6 6 6 7 6 7 6 6 6 5 5 5 4 4 4 4 4 4 4 4 4 4 5 5
8 8 8 8 9 10 11 12 12 12 12 12 12 11 11 10 9 9 8 8 7 7 6 6 5 6 6 6 6 6 7 6 6 6 5 5 4 4 4 4 3 3 3 3 4 4 4 5 5
7 7 7 8 8 9 10 11 11 11 11 11 11 10 10 9 9 8 8 7 7 6 6 6 5 6 6 6 6 6 6 7 6 6 5 5 4 3 3 3 3 3 3 4 4 4 4 5 5
6 7 6 6 7 8 9 8 9 10 10 10 9 9 9 8 8 7 7 6 6 6 5 5 5 5 5 5 6 6 6 6 6 5 5 4 3 3 2 2 2 2 2 3 3 4 4 4 5
4 4 4 5 5 6 7 7 7 8 9 9 9 9 8 7 7 7 6 5 5 5 5 5 5 5 5 6 6 5 6 5 6 5 4 3 3 2 2 2 2 2 2 3 3 3 3 4 5
2 1 2 3 4 4 6 6 7 8 8 8 8 8 8 7 7 6 6 5 5 5 5 5 4 4 4 5 5 5 5 5 5 4 4 3 2 2 2 2 2 2 3 3 3 2 3 4 4
3 1 1 1 2 3 4 5 6 6 7 7 7 7 7 7 7 7 6 5 5 4 4 4 3 3 3 3 3 3 4 4 4 4 3 2 2 2 2 2 2 2 3 3 3 3 3 3 4
3 2 2 2 1 2 2 3 4 5 5 5 6 6 6 7 7 7 6 6 5 4 4 4 3 2 2 2 3 3 3 3 3 3 2 2 1 1 1 1 2 2 3 3 3 3 4 4 5
4 3 3 3 1 2 3 3 3 4 4 5 5 5 6 6 7 7 6 6 5 4 3 3 3 2 1 1 1 2 2 2 2 2 2 2 2 1 1 2 2 2 3 3 4 4 4 5 5
5 4 3 2 1 2 2 3 3 3 4 4 4 5 6 6 6 6 6 6 5 4 3 2 2 1 1 1 1 1 1 1 1 1 2 2 2 2 3 3 4 4 4 4 5 5 5 5 5
7 5 4 3 2 2 2 2 3 2 3 4 4 5 5 5 5 6 7 6 6 5 4 3 3 2 1 0 0 1 1 1 1 2 3 4 4 4 5 5 5 5 5 5 6 5 6 6 6
8 6 5 4 4 4 3 2 2 3 3 4 4 5 5 5 5 6 6 7 6 6 4 4 3 3 2 2 1 2 2 2 3 3 4 5 5 5 6 7 7 7 7 6 7 7 7 7 7
9 7 6 6 6 6 5 3 4 3 3 3 4 5 5 5 6 6 6 6 7 7 5 4 4 3 3 3 3 3 4 4 4 5 5 6 6 7 7 8 8 8 8 8 8 8 9 9 9
10 9 9 8 8 7 7 5 5 5 4 4 4 5 6 6 6 6 6 6 7 7 6 5 5 5 5 5 5 5 6 6 6 6 7 7 8 8 8 8 8 9 9 9 9 10 10 10 11
13 12 11 10 9 8 9 8 7 7 5 5 5 6 6 6 6 6 7 7 7 7 7 7 7 6 6 6 6 7 7 7 7 7 8 8 9 9 9 9 9 10 10 11 11 12 12 12 12
15 14 13 11 11 9 10 9 8 9 7 7 6 6 6 6 6 7 8 8 8 8 8 8 8 8 8 8 8 9 9 9 9 9 9 9 9 9 10 10 11 11 11 12 12 12 12 12 12
15 16 15 14 13 11 10 11 10 10 9 8 8 8 7 7 7 8 9 9 9 9 9 9 9 9 10 10 10 10 10 10 11 11 11 11 11 11 11 12 12 12 13 13 13 13 14 14 14
17 16 16 15 15 14 12 13 13 11 10 10 10 10 10 10 10 10 10 11 11 11 10 10 11 11 11 12 12 12 12 12 12 13 13 13 13 13 14 14 14 15 15 15 15 16 15 16 16
Wind_Direction
74 73 72 71 66 64 65 67 68 73 76 78 80 84 96 102 111 115 110 114 118 123 129 130 130 131 135 141 140 132 126 125 126 127 121 117 115 109 108 109 109 108 111 108 97 97 98 86 71
75 73 70 67 67 65 62 64 64 67 73 74 76 81 90 96 103 106 108 113 117 121 127 133 136 138 137 138 142 138 131 128 124 121 117 115 117 115 112 107 100 93 101 105 102 99 93 78 67
73 71 66 65 66 65 64 65 66 69 71 72 73 78 83 87 89 97 106 112 114 119 127 134 135 135 135 134 136 134 127 122 118 116 117 113 108 104 104 105 97 86 103 104 105 104 102 86 70
71 70 65 64 65 65 65 66 68 66 68 69 70 72 74 79 87 95 106 114 114 120 127 132 132 133 135 135 132 129 127 125 121 115 113 108 104 105 107 103 100 94 94 94 104 103 106 103 72
73 71 66 62 64 64 64 64 65 69 71 69 72 70 69 75 84 92 103 108 110 115 121 131 134 138 142 139 129 127 126 123 121 117 112 108 108 109 106 98 101 101 102 89 79 95 99 85 77
76 74 73 68 66 65 66 66 67 69 71 69 68 68 71 75 79 85 96 107 111 111 115 127 133 140 143 141 131 127 127 123 117 109 109 105 107 106 100 95 97 99 108 100 82 82 83 74 77
77 78 77 73 66 64 66 67 67 70 66 64 66 69 73 75 78 83 94 105 113 114 116 125 127 132 134 134 129 126 127 124 117 112 111 106 105 103 93 94 94 96 100 100 88 73 59 53 48
76 77 73 71 70 66 64 62 61 64 64 61 64 70 76 79 80 84 93 101 111 115 117 125 126 129 132 134 131 129 127 127 124 121 116 110 108 102 101 101 95 96 94 84 82 66 47 43 42
81 79 76 76 72 66 63 59 58 61 61 60 63 65 72 78 82 87 92 98 109 114 117 121 126 130 132 134 133 130 128 132 133 130 124 118 115 109 105 97 96 92 84 76 70 61 48 39 35
85 87 83 79 74 71 66 61 59 59 62 61 62 65 73 80 84 87 89 97 107 112 116 119 127 131 134 133 133 133 135 135 132 132 131 125 118 110 105 102 96 90 81 70 62 52 43 42 36
87 90 85 77 72 71 67 61 61 60 63 61 60 66 74 79 85 87 89 92 99 108 114 118 125 131 134 136 135 136 138 133 128 127 123 120 117 112 115 110 98 86 78 68 56 50 46 48 38
86 87 82 75 70 66 62 60 60 60 62 63 61 64 72 79 82 86 89 92 96 101 108 116 121 128 134 139 138 138 140 134 128 128 123 119 117 119 121 116 101 84 74 68 55 51 44 40 34
85 80 78 73 68 64 60 61 62 59 63 65 64 65 67 74 79 82 87 90 94 99 105 109 117 123 132 135 141 142 140 136 131 128 127 125 120 116 116 107 97 84 70 62 51 52 41 36 32
87 74 69 67 65 65 62 61 59 58 61 63 63 64 66 70 73 75 80 85 86 90 97 100 109 122 126 134 139 142 137 133 133 130 124 124 124 119 107 96 89 83 69 53 52 51 43 41 38
85 71 64 63 61 61 63 59 56 54 56 60 63 63 64 66 70 71 74 78 78 80 88 94 105 115 121 131 138 137 134 132 133 131 124 122 122 119 101 94 82 72 62 52 52 48 47 48 43
81 69 58 60 59 58 60 53 53 50 50 54 58 60 60 63 65 67 71 75 78 81 84 90 103 111 118 127 133 133 131 131 133 130 130 132 127 117 101 87 73 60 47 37 40 35 43 47 43
80 67 67 59 58 57 57 53 50 46 43 46 50 52 53 55 56 59 64 72 76 84 84 89 99 111 121 126 132 134 136 137 136 131 130 130 127 120 116 97 71 46 31 34 31 32 44 43 33
167 109 68 57 58 57 53 48 43 41 40 41 43 45 50 51 52 54 59 66 73 79 83 84 92 108 125 130 135 138 142 144 140 135 135 128 123 117 107 85 57 39 26 23 22 39 41 26 19
197 207 268 1 49 56 46 37 30 31 35 39 37 39 44 46 48 51 53 58 64 68 66 69 81 95 119 137 147 150 149 152 153 152 145 134 126 111 88 74 47 18 14 14 8 21 17 5 2
205 220 275 297 11 46 38 26 23 20 24 24 25 29 33 39 41 41 44 48 53 58 64 66 71 85 113 132 146 158 165 167 172 177 186 183 165 136 74 60 26 5 2 359 344 345 347 343 344
219 230 254 279 348 21 22 5 7 19 25 20 17 21 23 29 31 29 30 32 36 42 52 61 56 57 70 90 146 162 170 173 179 202 224 228 236 259 306 305 309 326 337 337 331 330 328 332 331
229 232 236 256 330 334 26 337 342 20 27 21 15 14 12 12 15 18 18 18 18 23 28 28 21 25 27 31 130 147 171 177 203 242 252 252 256 275 285 286 295 301 310 320 316 315 318 317 318
227 235 241 258 288 300 325 345 320 355 15 11 3 358 356 1 6 6 4 3 3 4 6 4 0 357 342 346 151 195 193 201 241 267 274 268 267 275 284 288 290 291 295 305 307 310 311 312 312
235 243 257 271 275 278 281 296 304 315 345 348 346 349 350 350 356 356 353 352 352 350 346 343 337 331 322 304 279 247 249 259 266 273 280 280 282 280 285 289 289 289 289 297 304 314 311 306 306
236 240 257 265 266 268 278 283 276 297 320 326 330 333 336 334 334 338 342 343 342 338 330 325 320 312 305 293 285 272 269 272 278 282 287 287 287 285 288 288 288 289 290 296 303 304 308 308 305
231 227 233 243 248 262 273 268 274 292 309 305 313 323 321 317 318 319 325 328 330 328 321 313 306 299 292 284 281 281 281 280 282 285 288 286 285 286 290 290 289 291 291 291 294 300 302 303 303
232 231 235 243 251 256 262 268 280 283 289 290 294 306 315 314 308 307 310 316 321 320 313 301 296 292 287 281 278 280 283 283 284 287 287 286 285 285 285 287 288 288 291 293 295 297 298 296 295
231 235 238 239 246 253 264 265 262 272 275 280 284 294 306 308 304 302 305 307 310 312 308 300 292 288 285 281 277 278 282 285 285 285 285 285 284 282 282 284 285 287 292 294 294 295 296 294 292
235 237 240 243 243 247 258 258 256 267 272 274 273 282 293 298 297 298 300 301 300 300 299 296 292 290 287 285 282 282 281 283 283 283 285 284 283 281 281 282 284 285 289 291 291 292 290 287 287
236 239 242 244 248 246 248 253 255 263 268 268 272 278 284 289 290 294 297 297 296 295 294 293 291 289 288 285 282 281 281 283 283 282 281 280 281 283 282 283 285 285 288 290 289 288 289 286 286
Height
5901 5901 5900 5901 5901 5901 5899 5898 5897 5895 5894 5893 5892 5891 5890 5891 5891 5893 5890 5888 5888 5888 5888 5888 5888 5889 5889 5890 5890 5891 5891 5892 5892 5892 5892 5892 5892 5892 5892 5893 5892 5892 5892 5892 5892 5892 5891 5891 5890
5903 5902 5903 5903 5903 5903 5901 5899 5897 5896 5895 5893 5892 5892 5891 5890 5890 5890 5889 5888 5888 5888 5888 5888 5889 5889 5890 5891 5891 5891 5892 5892 5893 5893 5893 5893 5893 5893 5893 5893 5893 5893 5893 5893 5892 5892 5892 5891 5891
5904 5904 5905 5905 5904 5904 5902 5900 5898 5897 5895 5894 5893 5892 5892 5891 5890 5889 5889 5889 5888 5888 5889 5889 5890 5891 5891 5892 5892 5892 5893 5893 5893 5893 5894 5894 5893 5893 5894 5894 5894 5894 5893 5893 5893 5893 5892 5892 5891
5906 5907 5907 5908 5906 5905 5903 5902 5900 5898 5896 5895 5894 5893 5892 5891 5891 5890 5889 5889 5889 5889 5890 5890 5891 5892 5892 5892 5893 5893 5893 5894 5894 5894 5894 5894 5894 5894 5894 5894 5894 5894 5894 5894 5893 5893 5893 5892 5892
5908 5909 5910 5909 5908 5906 5905 5903 5901 5899 5898 5896 5895 5894 5893 5892 5891 5891 5890 5890 5890 5890 5891 5891 5892 5893 5893 5893 5894 5894 5894 5895 5895 5895 5895 5895 5895 5895 5895 5895 5895 5895 5895 5895 5894 5894 5893 5893 5892
5911 5911 5913 5911 5910 5908 5906 5904 5903 5901 5899 5898 5897 5895 5894 5893 5892 5892 5891 5891 5891 5892 5892 5892 5893 5894 5894 5895 5895 5895 5895 5895 5895 5895 5895 5895 5895 5896 5896 5896 5896 5896 5895 5895 5895 5895 5894 5893 5893
5914 5914 5914 5913 5911 5910 5908 5906 5904 5902 5901 5899 5898 5897 5895 5894 5893 5893 5893 5892 5893 5893 5893 5894 5894 5894 5895 5895 5896 5896 5896 5897 5897 5897 5897 5897 5897 5897 5897 5897 5897 5897 5896 5896 5896 5896 5895 5894 5894
5916 5917 5916 5915 5914 5912 5910 5908 5906 5904 5902 5901 5899 5898 5897 5896 5895 5894 5894 5894 5894 5894 5895 5895 5895 5895 5896 5896 5897 5897 5898 5898 5898 5898 5898 5898 5898 5898 5898 5898 5898 5898 5898 5897 5897 5896 5896 5895 5894
5918 5920 5919 5917 5915 5914 5911 5909 5908 5906 5904 5903 5901 5900 5899 5897 5896 5896 5896 5895 5896 5896 5896 5896 5896 5897 5897 5898 5898 5898 5899 5899 5899 5899 5899 5899 5899 5900 5900 5899 5899 5899 5899 5898 5898 5897 5897 5896 5895
5920 5922 5920 5918 5917 5915 5913 5911 5910 5908 5906 5905 5903 5902 5900 5899 5898 5898 5897 5897 5897 5897 5897 5898 5898 5898 5898 5899 5899 5899 5900 5900 5900 5900 5900 5900 5900 5900 5900 5900 5900 5900 5900 5899 5899 5898 5897 5897 5896
5922 5922 5921 5920 5918 5917 5915 5913 5911 5910 5909 5907 5905 5904 5902 5901 5900 5899 5899 5899 5899 5899 5899 5899 5899 5899 5900 5900 5900 5900 5900 5901 5901 5901 5901 5901 5901 5901 5901 5901 5901 5901 5900 5900 5899 5898 5898 5897 5896
5924 5923 5922 5921 5920 5918 5917 5915 5913 5912 5911 5909 5907 5906 5904 5903 5902 5901 5901 5900 5900 5900 5900 5900 5900 5900 5901 5901 5901 5901 5901 5902 5902 5902 5902 5902 5902 5902 5902 5902 5902 5902 5901 5901 5900 5900 5899 5898 5897
5926 5925 5924 5923 5921 5920 5918 5917 5916 5914 5913 5911 5910 5908 5907 5905 5904 5904 5903 5902 5902 5901 5901 5901 5901 5901 5901 5902 5902 5902 5902 5902 5902 5903 5903 5903 5903 5903 5903 5903 5903 5903 5902 5902 5901 5900 5900 5899 5898
5927 5927 5926 5925 5923 5922 5920 5919 5918 5917 5915 5914 5912 5911 5909 5908 5907 5906 5905 5904 5904 5903 5903 5902 5902 5902 5902 5903 5903 5903 5903 5903 5903 5904 5904 5904 5904 5904 5904 5904 5904 5903 5903 5902 5902 5901 5900 5899 5898
5928 5929 5928 5927 5925 5924 5923 5922 5920 5919 5917 5916 5914 5913 5911 5910 5909 5908 5907 5906 5906 5905 5904 5904 5903 5903 5904 5904 5904 5904 5904 5904 5904 5904 5904 5905 5905 5905 5905 5905 5904 5904 5903 5903 5902 5902 5901 5900 5899
5930 5931 5931 5929 5927 5926 5926 5925 5923 5921 5919 5918 5916 5915 5914 5913 5911 5910 5909 5908 5907 5907 5906 5905 5905 5904 5904 5904 5905 5905 5905 5905 5905 5905 5905 5906 5906 5905 5905 5905 5905 5904 5904 5903 5903 5902 5901 5901 5900
5932 5933 5932 5930 5929 5928 5927 5926 5925 5923 5921 5920 5918 5917 5916 5915 5913 5912 5911 5910 5909 5908 5907 5907 5906 5906 5905 5905 5905 5905 5906 5906 5906 5906 5906 5906 5906 5906 5906 5906 5905 5905 5904 5904 5903 5902 5902 5901 5900
5933 5933 5932 5931 5930 5929 5928 5928 5926 5925 5923 5922 5920 5919 5917 5916 5915 5914 5913 5911 5910 5909 5909 5908 5907 5907 5906 5906 5906 5906 5906 5907 5907 5907 5907 5907 5907 5907 5906 5906 5906 5905 5905 5904 5903 5903 5902 5901 5900
5932 5932 5932 5932 5931 5930 5929 5929 5927 5926 5925 5923 5922 5921 5919 5918 5917 5915 5914 5913 5912 5911 5910 5909 5909 5908 5907 5907 5907 5907 5907 5907 5907 5907 5908 5907 5907 5907 5906 5906 5906 5905 5905 5904 5904 5903 5902 5901 5901
5931 5932 5932 5931 5931 5931 5930 5930 5928 5927 5926 5924 5923 5922 5921 5919 5918 5917 5915 5914 5913 5912 5911 5910 5909 5909 5908 5908 5907 5907 5908 5908 5908 5908 5908 5908 5908 5907 5907 5906 5906 5906 5905 5904 5904 5903 5902 5901 5900
5930 5931 5931 5931 5931 5930 5931 5931 5929 5928 5926 5925 5924 5923 5922 5921 5919 5918 5916 5915 5914 5913 5912 5911 5911 5910 5909 5909 5908 5908 5908 5908 5908 5908 5908 5908 5908 5907 5907 5906 5906 5905 5905 5904 5903 5902 5902 5901 5900
5929 5930 5930 5930 5931 5932 5932 5932 5930 5928 5927 5926 5925 5924 5923 5921 5920 5919 5917 5916 5915 5914 5913 5912 5911 5911 5910 5909 5909 5909 5908 5908 5909 5908 5908 5907 5907 5907 5906 5906 5905 5905 5904 5904 5903 5902 5901 5900 5899
5928 5928 5929 5930 5931 5932 5931 5932 5932 5929 5927 5927 5925 5924 5923 5922 5921 5920 5918 5917 5915 5914 5913 5913 5912 5911 5911 5910 5909 5909 5909 5908 5908 5908 5907 5907 5906 5906 5905 5905 5904 5904 5903 5903 5902 5901 5900 5899 5898
5926 5927 5928 5929 5931 5932 5931 5932 5931 5929 5928 5927 5926 5925 5923 5922 5921 5920 5919 5917 5916 5915 5914 5913 5912 5912 5911 5910 5910 5909 5909 5909 5908 5908 5907 5906 5905 5905 5904 5904 5903 5902 5902 5901 5901 5900 5899 5898 5897
5924 5927 5929 5930 5931 5931 5930 5930 5930 5928 5927 5927 5926 5925 5924 5922 5921 5920 5919 5917 5916 5915 5914 5913 5912 5912 5911 5910 5910 5909 5909 5908 5908 5907 5906 5905 5904 5904 5903 5902 5902 5901 5901 5900 5899 5898 5898 5896 5895
5921 5924 5928 5929 5930 5930 5928 5928 5929 5927 5926 5925 5925 5924 5923 5922 5921 5920 5919 5917 5916 5915 5913 5912 5912 5911 5910 5910 5909 5909 5908 5907 5907 5906 5905 5904 5903 5902 5902 5901 5900 5900 5899 5898 5897 5896 5895 5894 5893
5918 5921 5923 5925 5926 5927 5927 5926 5926 5925 5924 5924 5923 5923 5922 5921 5920 5919 5918 5916 5915 5914 5913 5912 5911 5910 5909 5909 5908 5907 5907 5906 5905 5904 5903 5902 5901 5901 5900 5899 5898 5898 5897 5896 5895 5894 5893 5892 5891
5916 5918 5920 5922 5923 5925 5926 5925 5925 5923 5922 5922 5922 5921 5920 5920 5919 5917 5916 5915 5914 5913 5912 5910 5909 5909 5908 5907 5906 5906 5905 5904 5904 5903 5902 5901 5900 5898 5898 5897 5896 5895 5894 5893 5892 5891 5890 5888 5887
5912 5914 5915 5918 5919 5922 5923 5925 5921 5920 5920 5920 5919 5919 5919 5918 5917 5916 5915 5914 5912 5911 5910 5909 5908 5907 5906 5905 5904 5903 5902 5902 5901 5901 5900 5899 5897 5896 5895 5894 5893 5892 5891 5890 5889 5888 5886 5885 5884
5908 5910 5912 5914 5915 5916 5918 5922 5917 5917 5918 5917 5917 5917 5916 5916 5915 5914 5913 5911 5910 5909 5908 5907 5906 5905 5903 5902 5901 5901 5900 5899 5898 5897 5896 5895 5894 5893 5892 5891 5890 5889 5888 5887 5885 5884 5883 5881 5880